Terminal Aerodrome Forecast
Issued by NWS Austin/San Antonio, TX

Home | Current Version | Previous Version | Text Only | Print | Product List | Glossary On
Versions: 1 2 3 4 5 6 7 8 9 10 11 12
000
FTUS44 KEWX 292334
TAFDRT
TAF
KDRT 292334Z 3000/3024 13005KT P6SM BKN150
     FM300300 11010KT P6SM BKN150
     FM301600 14010KT P6SM BKN250=

USA.gov is the U.S. government's official web portal to all federal, state and local government web resources and services.